Location: Eschentzwiller
(47.7125°N, 7.3981°E)
Time: 04:13:30
(UTC+00:00)

Cosmos 1315 Rocket - Pass Details

Date: 27 October 2020
Orbit: 530 x 567 km, 81.2° (Epoch: 01 December)

Event Time Altitude Azimuth Distance (km) Brightness Sun altitude
Rises 17:49:27 0° 169° (S) 2,674 6.2 -15.6°
Reaches altitude 10° 17:51:41 10° 161° (SSE) 1,794 5.3 -15.9°
Maximum altitude 17:55:19 36° 94° (E) 869 3.3 -16.5°
Enters shadow 17:56:10 32° 65° (ENE) 946 3.5 -16.7°
